Location: Obersdorf
(47.4079°N, 10.2781°E)
Time: 03:20:40
(UTC+02:00)

COSMOS 2251 DEB - Pass Details

Date: 09 July 2022
Orbit: 490 x 569 km, 73.9° (Epoch: 09 August)

Event Time Altitude Azimuth Distance (km) Brightness Sun altitude
Exits shadow 04:34:44 11° 226° (SW) 1,805 ? -8.1°
Maximum altitude 04:38:32 41° 298° (WNW) 799 ? -7.7°
Drops below altitude 10° 04:42:22 10° 10° (N) 1,804 ? -7.2°
Sets 04:44:31 0° 17° (NNE) 2,651 ? -7.0°
